When you browse on this site, cookies collect data to enhance your experience and personalize the content and advertising you see.
Visit our Privacy Policy to learn more. By continuing to use the site, you agree to this use of cookies and data.
  • In United Kingdom
  • List of Countries
  • For 7 days
  • Water Temperature
  • Satellite Maps
  • Weather Map
  • Weather Widgets
  • user-avatar
    Login

    Hourly Weather Pasto

    Today, 25 June, Tuesday

    Time Temperature Precipitation Wind Pressure Humidity
    00:00 +9°C° 0 mm 2 mps 547 mmHg 91%
    01:00 +8°C° 0 mm 2 mps 547 mmHg 91%
    02:00 +8°C° 0 mm 2 mps 546 mmHg 91%
    03:00 +8°C° 0 mm 2 mps 546 mmHg 90%
    04:00 +9°C° 0 mm 1 mps 546 mmHg 90%
    05:00 +10°C° 0 mm 1 mps 546 mmHg 89%
    06:00 +10°C° 0 mm 1 mps 546 mmHg 88%
    07:00 +10°C° 0 mm 1 mps 547 mmHg 87%
    08:00 +13°C° 0 mm 1 mps 548 mmHg 79%
    09:00 +15°C° 0 mm 1 mps 550 mmHg 71%
    10:00 +19°C° 0 mm 1 mps 551 mmHg 62%
    11:00 +18°C° 0.4 mm 2 mps 551 mmHg 66%
    12:00 +18°C° 0.4 mm 2 mps 550 mmHg 70%
    13:00 +18°C° 0.4 mm 2 mps 550 mmHg 73%
    14:00 +17°C° 1.3 mm 2 mps 549 mmHg 77%
    15:00 +16°C° 1.3 mm 1 mps 548 mmHg 81%
    16:00 +16°C° 1.3 mm 1 mps 548 mmHg 85%
    17:00 +14°C° 0.7 mm 1 mps 547 mmHg 89%
    18:00 +13°C° 0.7 mm 1 mps 547 mmHg 93%
    19:00 +11°C° 0.7 mm 0 mps 547 mmHg 97%
    20:00 +12°C° 0.1 mm 1 mps 547 mmHg 96%
    21:00 +11°C° 0.1 mm 1 mps 547 mmHg 96%
    22:00 +11°C° 0.1 mm 1 mps 547 mmHg 95%
    23:00 +11°C° 0 mm 1 mps 547 mmHg 95%

    Tomorrow, 26 June, Wednesday

    Time Temperature Precipitation Wind Pressure Humidity
    00:00 +11°C° 0 mm 1 mps 547 mmHg 95%
    01:00 +11°C° 0 mm 1 mps 547 mmHg 95%
    02:00 +11°C° 0 mm 1 mps 546 mmHg 94%
    03:00 +10°C° 0 mm 1 mps 546 mmHg 94%
    04:00 +10°C° 0 mm 1 mps 546 mmHg 93%
    05:00 +10°C° 0 mm 1 mps 546 mmHg 93%
    06:00 +11°C° 0 mm 1 mps 546 mmHg 92%
    07:00 +11°C° 0 mm 1 mps 547 mmHg 91%
    08:00 +13°C° 0 mm 1 mps 548 mmHg 83%
    09:00 +15°C° 0 mm 1 mps 549 mmHg 75%
    10:00 +18°C° 0 mm 1 mps 551 mmHg 67%
    11:00 +18°C° 0.6 mm 1 mps 551 mmHg 68%
    12:00 +18°C° 0.6 mm 2 mps 550 mmHg 69%
    13:00 +18°C° 0.6 mm 2 mps 550 mmHg 71%
    14:00 +17°C° 1.4 mm 2 mps 549 mmHg 75%
    15:00 +18°C° 1.4 mm 1 mps 548 mmHg 79%
    16:00 +16°C° 1.4 mm 1 mps 547 mmHg 83%
    17:00 +15°C° 0.7 mm 1 mps 547 mmHg 87%
    18:00 +14°C° 0.7 mm 1 mps 547 mmHg 92%
    19:00 +12°C° 0.7 mm 1 mps 546 mmHg 96%
    20:00 +12°C° 0.5 mm 1 mps 547 mmHg 96%
    21:00 +12°C° 0.5 mm 1 mps 547 mmHg 95%
    22:00 +12°C° 0.5 mm 2 mps 548 mmHg 94%
    23:00 +12°C° 0 mm 1 mps 547 mmHg 94%

    Day after tomorrow, 27 June, Thursday

    Time Temperature Precipitation Wind Pressure Humidity
    00:00 +11°C° 0 mm 1 mps 547 mmHg 94%
    01:00 +11°C° 0 mm 1 mps 547 mmHg 94%
    02:00 +10°C° 0 mm 2 mps 546 mmHg 94%
    03:00 +10°C° 0 mm 2 mps 546 mmHg 94%
    04:00 +9°C° 0 mm 2 mps 545 mmHg 94%
    05:00 +9°C° 0 mm 2 mps 546 mmHg 94%
    06:00 +10°C° 0 mm 2 mps 546 mmHg 93%
    07:00 +10°C° 0 mm 2 mps 546 mmHg 92%
    08:00 +12°C° 0 mm 2 mps 547 mmHg 89%
    09:00 +13°C° 0 mm 2 mps 548 mmHg 86%
    10:00 +14°C° 0 mm 2 mps 549 mmHg 82%
    11:00 +15°C° 0.2 mm 2 mps 549 mmHg 76%
    12:00 +17°C° 0.2 mm 2 mps 550 mmHg 69%
    13:00 +18°C° 0.2 mm 2 mps 550 mmHg 62%
    14:00 +18°C° 0.7 mm 2 mps 549 mmHg 67%
    15:00 +17°C° 0.7 mm 2 mps 549 mmHg 72%
    16:00 +16°C° 0.7 mm 2 mps 548 mmHg 77%
    17:00 +15°C° 0.6 mm 1 mps 547 mmHg 83%
    18:00 +13°C° 0.6 mm 1 mps 547 mmHg 89%
    19:00 +12°C° 0.6 mm 1 mps 546 mmHg 95%
    20:00 +11°C° 0.1 mm 1 mps 547 mmHg 94%
    21:00 +10°C° 0.1 mm 2 mps 547 mmHg 94%
    22:00 +10°C° 0.1 mm 2 mps 547 mmHg 93%
    23:00 +9°C° 0 mm 2 mps 547 mmHg 93%

    28 June, Friday

    Time Temperature Precipitation Wind Pressure Humidity
    00:00 +9°C° 0 mm 2 mps 546 mmHg 93%
    01:00 +9°C° 0 mm 2 mps 546 mmHg 92%
    02:00 +8°C° 0 mm 2 mps 546 mmHg 92%
    03:00 +8°C° 0 mm 2 mps 545 mmHg 92%
    04:00 +8°C° 0 mm 2 mps 545 mmHg 91%
    05:00 +8°C° 0 mm 2 mps 545 mmHg 90%
    06:00 +9°C° 0 mm 2 mps 546 mmHg 90%
    07:00 +9°C° 0 mm 2 mps 546 mmHg 89%
    08:00 +10°C° 0 mm 2 mps 548 mmHg 85%
    09:00 +13°C° 0 mm 2 mps 549 mmHg 81%
    10:00 +14°C° 0 mm 2 mps 550 mmHg 77%
    11:00 +15°C° 0.1 mm 2 mps 550 mmHg 75%
    12:00 +15°C° 0.1 mm 2 mps 549 mmHg 73%
    13:00 +16°C° 0.1 mm 2 mps 549 mmHg 71%
    14:00 +16°C° 0.1 mm 2 mps 549 mmHg 68%
    15:00 +17°C° 0.1 mm 2 mps 549 mmHg 65%
    16:00 +17°C° 0.1 mm 2 mps 549 mmHg 63%
    17:00 +15°C° 0.3 mm 2 mps 548 mmHg 72%
    18:00 +13°C° 0.3 mm 2 mps 547 mmHg 81%
    19:00 +10°C° 0.3 mm 2 mps 546 mmHg 90%
    20:00 +10°C° 0 mm 2 mps 547 mmHg 90%
    21:00 +10°C° 0 mm 2 mps 547 mmHg 90%
    22:00 +10°C° 0 mm 2 mps 548 mmHg 90%
    23:00 +10°C° 0 mm 2 mps 547 mmHg 90%

    29 June, Saturday

    Time Temperature Precipitation Wind Pressure Humidity
    00:00 +12°C° 0 mm 2 mps 547 mmHg 90%
    01:00 +12°C° 0 mm 2 mps 547 mmHg 90%
    02:00 +12°C° 0 mm 2 mps 547 mmHg 90%
    03:00 +10°C° 0 mm 2 mps 547 mmHg 90%
    04:00 +10°C° 0 mm 2 mps 546 mmHg 90%
    05:00 +10°C° 0.2 mm 2 mps 547 mmHg 91%
    06:00 +10°C° 0.2 mm 2 mps 547 mmHg 92%
    07:00 +10°C° 0.2 mm 2 mps 547 mmHg 93%
    08:00 +13°C° 0.2 mm 2 mps 548 mmHg 85%
    09:00 +15°C° 0.2 mm 2 mps 549 mmHg 78%
    10:00 +16°C° 0.2 mm 2 mps 551 mmHg 70%
    11:00 +17°C° 0.3 mm 2 mps 550 mmHg 67%
    12:00 +18°C° 0.3 mm 2 mps 550 mmHg 64%
    13:00 +18°C° 0.3 mm 2 mps 550 mmHg 61%
    14:00 +17°C° 0.5 mm 2 mps 549 mmHg 71%
    15:00 +15°C° 0.5 mm 2 mps 548 mmHg 80%
    16:00 +13°C° 0.5 mm 2 mps 546 mmHg 89%
    17:00 +13°C° 0.2 mm 2 mps 546 mmHg 90%
    18:00 +12°C° 0.2 mm 2 mps 546 mmHg 90%
    19:00 +10°C° 0.2 mm 2 mps 547 mmHg 91%
    20:00 +12°C° 0.1 mm 2 mps 547 mmHg 91%
    21:00 +12°C° 0.1 mm 2 mps 547 mmHg 91%
    22:00 +12°C° 0.1 mm 1 mps 548 mmHg 90%
    23:00 +11°C° 0.2 mm 1 mps 548 mmHg 91%

    30 June, Sunday

    Time Temperature Precipitation Wind Pressure Humidity
    00:00 +11°C° 0.2 mm 1 mps 547 mmHg 92%
    01:00 +11°C° 0.2 mm 1 mps 547 mmHg 93%
    02:00 +11°C° 0.1 mm 1 mps 547 mmHg 93%
    03:00 +11°C° 0.1 mm 1 mps 546 mmHg 93%
    04:00 +11°C° 0.1 mm 1 mps 546 mmHg 93%
    05:00 +11°C° 0 mm 1 mps 546 mmHg 92%
    06:00 +10°C° 0 mm 2 mps 547 mmHg 92%
    07:00 +10°C° 0 mm 2 mps 547 mmHg 91%
    08:00 +12°C° 0.1 mm 2 mps 548 mmHg 90%
    09:00 +12°C° 0.1 mm 1 mps 548 mmHg 89%
    10:00 +13°C° 0.1 mm 1 mps 549 mmHg 88%
    11:00 +14°C° 0.2 mm 1 mps 549 mmHg 86%
    12:00 +14°C° 0.2 mm 1 mps 549 mmHg 85%
    13:00 +14°C° 0.2 mm 2 mps 548 mmHg 83%
    14:00 +14°C° 0.6 mm 1 mps 548 mmHg 85%
    15:00 +14°C° 0.6 mm 1 mps 547 mmHg 87%
    16:00 +14°C° 0.6 mm 1 mps 547 mmHg 88%
    17:00 +13°C° 0.4 mm 1 mps 547 mmHg 90%
    18:00 +12°C° 0.4 mm 1 mps 547 mmHg 92%
    19:00 +12°C° 0.4 mm 1 mps 547 mmHg 94%
    20:00 +12°C° 0.2 mm 1 mps 547 mmHg 94%
    21:00 +11°C° 0.2 mm 1 mps 548 mmHg 93%
    22:00 +10°C° 0.2 mm 2 mps 548 mmHg 93%
    23:00 +11°C° 0.2 mm 1 mps 548 mmHg 93%
    Show more